Location: Newark
(40.3500°N, 15.2333°E)
Time: 09:17:30
(UTC+00:00)

NOAA 19 - Pass Details

Date: 21 February 2020
Orbit: 842 x 860 km, 99.2° (Epoch: 07 April)

Event Time Altitude Azimuth Distance (km) Brightness Sun altitude
Rises 03:52:30 0° 28° (NNE) 3,419 8.8 -22.2°
Reaches altitude 10° 03:55:22 10° 42° (NE) 2,482 8.2 -21.7°
Maximum altitude 03:59:42 23° 95° (E) 1,720 7.6 -20.8°
Drops below altitude 10° 04:04:01 10° 147° (SSE) 2,478 8.0 -20.0°
Sets 04:06:51 0° 161° (SSE) 3,413 8.6 -19.5°
